Location: Bo?a Wola
(50.4192°N, 19.7966°E)
Time: 12:09:50
(UTC+00:00)

H-2A R/B - Visible Passes

Search period start: 11 September 2024 00:00
Search period end: 21 September 2024 00:00
Orbit: 566 x 633 km, 98.4° (Epoch: 10 September)

Date Brightness Start Highest point End Pass type
(mag) Time Alt. Az. Time Alt. Az. Time Alt. Az.
11 Sep 4.5 01:02:33 10° NNW 01:03:56 13° NW 01:03:56 13° NW visible
11 Sep 4.3 23:36:14 10° N 23:38:03 24° N 23:38:03 24° N visible
12 Sep 4.6 01:14:00 10° NNW 01:14:46 11° NW 01:14:46 11° NW visible
12 Sep 4.3 23:47:05 10° N 23:48:52 23° N 23:48:52 23° N visible
13 Sep 5.0 22:22:45 10° NE 22:22:57 11° NE 22:22:57 11° NE visible
13 Sep 4.3 23:57:57 10° N 23:59:41 22° N 23:59:41 22° N visible
14 Sep 5.0 22:33:19 10° NE 22:33:45 12° NE 22:33:45 12° NE visible
15 Sep 4.4 00:08:50 10° N 00:10:28 20° NNW 00:10:28 20° NNW visible
15 Sep 5.0 22:43:55 10° NNE 22:44:31 13° NNE 22:44:31 13° NNE visible
16 Sep 4.4 00:19:43 10° N 00:21:14 19° NNW 00:21:14 19° NNW visible
16 Sep 4.9 22:54:33 10° NNE 22:55:16 14° NNE 22:55:16 14° NNE visible
17 Sep 4.5 00:30:38 10° N 00:31:59 17° NNW 00:31:59 17° NNW visible
17 Sep 4.9 23:05:13 10° NNE 23:06:01 15° NNE 23:06:01 15° NNE visible
18 Sep 4.6 00:41:35 10° NNW 00:42:44 15° NNW 00:42:44 15° NNW visible
18 Sep 4.9 23:15:53 10° NNE 23:16:44 16° NNE 23:16:44 16° NNE visible
19 Sep 4.6 00:52:34 10° NNW 00:53:27 13° NNW 00:53:27 13° NNW visible
19 Sep 4.9 23:26:34 10° NNE 23:27:26 16° NNE 23:27:26 16° NNE visible
20 Sep 4.7 01:03:39 10° NNW 01:04:09 11° NNW 01:04:09 11° NNW visible
20 Sep 4.9 23:37:15 10° N 23:38:07 16° N 23:38:07 16° N visible
